Theta_e
286 286 287 289 289 289 287 285 283 284 282 282 281 278 282 280 280 282 281 281 283 286 289 291 291 291 291 292 294 294 294 294 294 294 295 295 296 295 296 297 298 298 298 299 298 297 296 297 297 298 298 298 298 298 299 299 299 300 302 301 300 300 300 300 300 301 301 303 306 307 309 310 311 311 310 309 308 308 311 312 312 311 310 309 308 307 306
287 287 287 287 289 287 287 287 287 285 283 281 282 282 281 283 282 284 283 282 284 288 289 291 293 293 292 293 292 293 293 294 294 295 294 295 295 296 296 297 298 298 298 298 296 296 295 296 297 297 298 298 298 298 299 298 298 299 301 300 300 300 300 299 300 301 302 304 305 306 308 310 310 310 308 307 309 309 312 312 312 311 309 309 308 306 306
285 285 287 287 287 288 286 287 286 284 282 280 279 278 279 283 280 283 283 283 285 290 291 292 292 290 290 292 292 294 294 293 294 294 294 295 295 296 297 297 297 297 297 296 295 296 295 296 297 297 298 298 298 297 298 297 298 300 301 300 300 299 300 299 300 301 302 303 305 307 309 311 311 310 309 308 309 312 312 312 311 310 309 308 307 307 306
280 284 285 286 284 285 285 281 283 277 279 282 278 280 281 280 282 279 282 282 282 289 288 289 289 289 290 291 292 293 294 293 294 294 294 295 295 296 297 297 297 296 297 296 296 296 295 295 296 297 297 297 297 298 297 297 298 300 300 300 300 299 300 299 300 301 302 303 304 306 307 308 310 311 310 309 309 312 312 311 312 310 309 308 308 307 307
276 281 283 284 283 280 278 280 279 281 278 281 281 282 284 285 282 280 280 283 287 288 289 290 292 290 291 290 291 292 294 294 294 294 295 295 296 296 297 297 298 297 297 297 297 296 295 296 296 297 298 297 297 298 296 296 299 300 300 300 299 299 299 299 300 300 301 303 305 307 307 307 308 310 310 310 310 311 311 312 312 310 310 309 307 307 306
277 281 283 281 278 273 277 284 286 288 291 286 282 282 284 286 287 286 287 291 290 288 289 289 290 291 293 293 294 295 295 296 295 294 294 296 296 295 295 296 297 297 296 296 297 297 296 296 297 298 298 298 298 297 298 299 300 300 300 299 298 299 299 299 299 299 300 302 304 307 308 308 307 307 308 307 308 309 312 313 311 310 310 309 308 306 307
279 282 280 278 270 273 283 284 287 289 291 288 289 288 287 287 287 288 289 291 291 292 291 292 292 293 294 294 294 296 296 296 295 296 295 295 295 295 294 294 295 295 296 296 295 295 295 296 297 296 296 298 298 295 297 299 299 299 299 298 298 298 299 299 299 299 300 300 302 306 307 307 306 306 306 306 305 306 308 310 310 308 308 307 307 307 304
279 279 273 273 275 283 287 288 290 291 291 290 289 288 288 288 290 290 289 291 292 292 292 293 293 293 293 294 295 295 296 296 296 295 295 295 295 295 295 295 295 295 295 295 295 295 298 298 298 296 296 295 296 296 296 299 299 298 298 298 299 297 298 299 299 298 299 299 301 303 306 306 305 304 304 304 304 306 309 309 310 309 307 308 307 305 302
280 275 273 281 282 286 286 288 291 288 289 288 288 282 284 289 288 290 289 291 291 291 291 293 293 292 291 290 295 295 295 296 295 296 296 296 296 295 295 296 296 296 296 296 296 298 297 297 297 296 295 295 295 295 296 298 298 298 298 298 298 298 301 300 300 299 299 299 301 304 304 304 304 303 303 304 304 307 306 306 308 307 306 306 305 303 302
275 280 276 277 275 273 277 282 289 291 293 291 289 289 288 290 289 291 291 290 291 290 292 292 292 290 293 291 291 296 296 295 296 296 296 296 296 295 295 295 295 295 296 295 297 298 297 296 296 295 294 295 294 295 296 296 297 297 297 298 298 299 299 300 299 298 298 301 303 304 303 303 303 303 304 304 303 306 305 304 304 306 307 304 303 303 301
280 279 276 273 274 278 279 287 291 294 292 293 289 287 284 288 288 291 292 292 291 291 292 294 291 292 289 288 289 295 296 295 296 296 297 296 295 295 295 296 295 295 295 296 298 297 295 296 295 294 293 293 295 295 297 295 296 296 297 298 298 298 299 299 298 298 297 299 301 302 303 303 303 303 303 303 305 304 303 304 306 307 306 303 302 300 299
278 274 276 276 275 278 287 287 288 291 292 292 289 279 275 286 289 292 293 293 293 292 292 292 293 293 287 287 292 295 296 296 296 296 297 296 295 295 295 296 296 296 298 299 295 294 295 297 296 293 292 293 296 295 296 293 295 296 298 299 299 299 299 298 297 298 299 301 301 302 301 301 301 301 304 302 300 301 301 302 305 306 304 302 299 298 297
279 280 276 275 280 285 287 289 291 292 293 292 281 277 283 286 288 292 295 294 295 293 293 293 294 291 296 295 297 296 295 295 297 297 296 297 297 297 295 296 299 296 297 298 297 296 297 297 295 294 293 294 297 298 294 293 294 296 298 298 298 298 298 298 298 297 297 298 299 298 298 298 299 303 302 299 299 300 299 301 303 303 301 300 298 296 295
279 279 279 283 281 285 290 291 293 294 292 282 277 288 291 289 291 293 296 297 296 295 296 293 293 294 294 296 296 296 296 297 295 295 296 296 297 297 298 298 296 296 296 295 295 295 296 296 296 294 294 295 296 295 293 293 295 295 295 295 296 297 298 298 298 298 297 298 299 300 300 301 299 296 296 297 299 298 297 299 300 299 298 297 295 295 294
277 275 276 275 276 285 295 296 293 295 286 285 289 289 293 293 292 295 295 297 297 295 295 296 297 296 297 296 296 296 296 295 297 297 296 297 297 297 295 296 297 297 295 296 296 296 296 295 295 294 293 295 295 295 293 295 295 294 294 296 297 298 298 298 300 300 299 298 299 299 299 297 294 293 292 294 296 297 295 297 298 297 296 295 294 293 293
278 274 275 276 285 284 295 296 289 290 295 290 291 294 296 294 294 294 295 296 297 296 297 297 295 295 296 297 297 296 296 296 297 296 295 295 296 296 296 297 297 298 297 297 296 296 296 296 295 294 294 295 295 294 294 295 293 294 295 295 296 296 298 298 297 297 299 298 296 295 297 296 296 293 292 294 295 295 295 297 297 296 295 294 293 293 293
281 279 282 286 286 288 294 297 296 294 296 293 293 295 297 296 295 296 295 298 297 297 297 297 296 294 295 297 298 296 299 297 296 297 298 297 297 298 297 297 297 297 297 297 297 296 296 296 295 295 294 295 296 295 295 294 294 295 295 295 296 296 296 295 295 294 293 292 294 293 292 292 294 294 294 294 293 294 296 296 296 296 295 295 294 294 293
286 288 291 290 290 291 293 296 298 295 293 294 294 296 296 296 296 297 298 298 299 296 295 296 294 296 297 296 298 297 297 297 298 298 297 297 297 297 296 296 297 298 297 297 296 296 297 296 296 296 295 295 296 296 294 295 294 294 295 295 296 296 295 294 293 294 293 291 291 290 291 291 293 291 291 294 294 293 295 296 296 295 294 294 293 292 291
288 284 288 290 292 291 292 294 295 296 297 298 297 296 297 299 297 297 298 298 297 297 295 297 298 298 297 296 298 298 298 298 299 299 298 298 298 297 297 298 297 297 296 296 296 297 297 297 296 296 295 295 296 298 296 295 294 294 295 296 297 296 294 293 292 292 291 290 290 290 288 287 288 291 291 290 293 296 295 295 295 295 295 295 294 293 293
287 284 286 288 289 290 292 292 293 296 298 298 298 300 299 298 297 297 298 297 297 296 297 298 298 299 299 297 298 299 299 299 299 299 299 299 298 297 298 297 297 297 297 296 297 297 297 298 297 297 296 296 296 296 296 294 294 294 295 295 295 295 293 292 293 292 291 295 293 288 288 287 287 288 289 290 291 292 293 294 294 293 294 293 293 293 292
287 287 288 289 290 291 292 291 292 295 295 295 296 298 299 298 299 299 297 297 300 296 300 298 297 297 299 298 298 298 299 299 299 300 300 299 299 299 297 297 297 297 297 297 297 298 298 299 298 297 297 297 297 296 296 294 294 294 295 295 295 293 292 291 293 294 293 295 290 288 287 287 286 286 287 289 290 289 287 287 292 294 294 293 294 292 293
282 286 288 289 287 282 287 292 295 295 295 295 296 296 295 295 298 298 298 299 297 299 299 297 296 297 298 299 297 297 298 299 299 300 300 299 299 299 299 298 297 298 299 298 298 298 298 299 298 297 297 297 298 297 296 295 294 295 296 294 293 293 291 291 292 293 292 290 290 289 288 288 288 288 288 290 288 288 289 289 285 285 290 293 294 293 292
285 288 289 290 290 290 291 293 294 294 295 295 296 296 296 296 296 297 297 298 296 295 295 296 297 297 298 298 297 296 298 299 300 300 299 300 300 300 298 296 296 297 298 299 299 298 298 298 298 298 298 298 298 297 296 295 295 296 296 295 294 293 293 292 292 295 292 289 289 289 287 287 287 288 288 288 288 290 290 289 286 285 283 283 287 289 293
289 288 289 290 291 291 292 293 293 294 294 295 296 296 296 296 296 295 296 297 297 296 296 295 296 297 296 297 296 297 298 298 298 299 298 298 299 300 299 298 298 297 297 298 298 299 299 299 299 298 298 298 298 297 296 296 295 296 295 296 295 294 293 293 292 292 292 290 290 289 288 287 286 286 286 287 289 288 289 289 289 286 285 285 286 286 287
291 292 291 292 293 293 294 294 294 295 295 296 295 296 297 296 296 295 296 296 295 296 296 297 297 295 296 297 296 296 297 297 298 298 298 298 298 298 299 298 298 298 298 299 299 299 299 299 299 299 298 298 298 297 297 296 295 295 295 296 295 294 293 293 292 292 292 290 289 289 289 288 287 285 285 285 286 288 288 288 290 289 289 290 289 289 289
293 292 292 292 292 294 294 294 294 294 295 296 296 296 299 303 298 296 296 296 296 295 295 295 296 297 296 296 297 296 295 297 298 297 297 299 298 298 298 299 300 301 300 299 299 299 298 299 299 299 298 299 298 298 297 296 296 296 296 295 295 294 293 292 292 291 292 291 290 289 288 288 288 287 286 285 284 285 287 288 289 289 289 290 290 290 290
293 294 294 294 292 293 291 294 294 294 294 295 297 298 296 294 302 300 297 295 295 294 295 295 296 296 295 295 296 295 297 299 297 298 298 298 298 300 301 301 300 300 300 299 299 298 298 299 300 299 299 300 299 298 297 297 296 296 296 295 295 292 290 291 292 293 292 292 291 289 288 288 288 287 287 286 285 285 286 286 286 287 288 289 289 290 290
293 293 294 293 290 291 293 293 295 294 293 294 295 296 295 297 298 299 299 299 299 296 294 294 295 295 297 297 296 299 296 296 298 298 299 300 301 301 300 299 299 299 299 299 299 299 299 299 299 300 300 300 299 298 298 297 296 296 296 295 295 295 294 294 294 293 293 292 291 289 289 288 289 288 287 287 287 286 285 285 286 286 286 287 287 288 290
293 293 294 295 296 296 294 294 294 294 295 294 295 295 297 298 297 297 297 295 294 294 297 297 296 296 296 298 296 297 297 297 298 299 300 301 301 301 300 298 298 298 298 298 298 298 298 298 298 299 300 300 299 298 298 297 297 297 296 295 295 295 295 294 294 292 292 292 291 290 287 288 288 288 287 287 287 287 287 287 287 286 287 287 289 291 289
295 295 293 294 295 294 293 294 295 295 296 296 297 297 296 296 296 295 294 294 293 296 298 295 294 297 295 296 297 296 298 299 300 300 300 301 301 301 300 298 297 296 295 296 297 297 297 297 298 298 300 300 299 298 298 298 298 298 297 297 296 296 296 296 294 292 291 291 291 287 289 288 288 289 289 289 289 289 288 288 288 288 289 289 291 288 289
291 292 292 293 293 292 293 294 295 295 295 295 295 296 295 295 296 294 294 293 293 294 295 295 295 296 297 297 298 297 297 297 298 299 299 300 300 300 299 297 299 300 301 300 299 297 298 298 300 300 302 301 299 298 298 298 298 298 298 297 297 292 291 290 290 294 292 292 291 291 290 289 289 288 288 289 289 289 289 290 289 289 289 289 289 289 290
294 295 296 294 293 293 293 293 293 295 296 295 295 296 297 297 296 296 295 295 297 296 295 296 296 298 299 298 297 297 297 297 298 298 299 299 300 300 298 298 299 297 301 301 299 298 298 299 299 301 303 301 299 299 298 298 298 298 297 294 297 297 292 289 292 292 292 292 291 291 291 291 290 289 289 289 289 290 291 291 291 290 290 290 290 291 291
292 292 292 293 294 294 293 293 295 296 296 296 298 298 297 296 296 296 297 297 296 296 295 297 298 298 298 296 296 297 297 297 297 297 298 300 301 302 300 298 299 300 301 301 301 300 299 299 301 303 303 300 299 299 299 298 299 298 298 298 298 297 292 290 291 293 291 291 291 292 292 292 292 290 290 290 290 290 291 291 291 291 291 291 292 293 291
294 294 295 296 297 297 296 297 296 296 297 296 295 295 295 295 296 296 297 295 295 296 297 298 299 297 296 296 296 296 295 296 298 299 300 300 301 301 301 299 300 300 300 301 300 300 300 301 302 303 303 301 299 299 299 299 299 299 299 299 298 297 296 294 293 294 292 291 291 291 291 291 291 291 291 290 290 290 290 291 291 291 292 292 293 293 292
297 297 297 297 298 299 299 299 298 297 297 297 296 295 296 296 295 297 296 295 296 298 299 297 296 296 296 295 296 296 295 297 298 298 299 299 300 301 300 300 300 300 300 300 299 300 301 302 302 302 302 301 300 299 299 299 299 299 299 299 297 297 297 295 294 294 293 293 292 292 291 291 291 288 290 291 291 290 290 290 291 291 291 292 292 292 292
297 297 297 296 297 297 297 297 298 298 298 298 298 298 297 297 296 295 295 296 297 298 297 297 297 295 295 295 296 297 298 298 298 298 298 299 300 299 298 299 299 299 300 301 303 302 301 302 295 294 301 300 300 299 299 299 300 300 299 299 297 296 296 295 295 294 294 295 293 293 293 291 290 290 290 290 291 290 291 290 290 290 290 291 291 291 292
297 297 298 297 297 296 296 297 297 297 297 298 298 296 296 295 296 297 297 297 297 298 298 296 296 295 298 297 297 297 297 298 298 298 299 299 298 297 298 298 298 298 299 299 303 302 301 301 294 290 297 299 300 300 298 292 299 300 299 299 298 296 296 295 295 295 294 294 294 293 292 291 292 292 290 290 291 290 290 291 290 290 290 290 291 291 291
296 297 297 297 297 296 297 298 298 298 297 295 295 295 297 297 297 297 296 296 297 298 296 295 297 297 297 295 295 297 298 299 298 298 298 298 297 297 299 298 299 299 299 301 301 300 302 299 291 293 301 301 302 302 298 290 292 299 299 299 298 297 295 295 294 294 294 295 293 294 293 292 293 293 291 290 290 290 290 291 290 290 290 290 291 291 291
295 296 296 296 296 297 296 296 296 295 298 298 298 297 296 296 296 295 295 297 298 296 296 297 295 295 296 296 297 298 298 299 298 298 297 298 297 297 299 301 302 303 304 305 304 304 303 299 298 300 301 302 303 303 297 291 290 298 299 299 298 297 296 295 295 294 294 295 294 294 294 293 293 293 293 292 291 290 289 291 291 291 291 291 291 291 292
296 296 297 297 297 296 296 297 296 296 296 297 297 297 297 295 295 295 295 296 297 295 296 296 296 297 297 297 297 297 299 299 299 297 297 297 295 296 298 300 302 302 302 296 301 303 299 294 297 302 302 302 302 301 299 293 291 296 299 299 298 297 297 296 296 295 295 295 294 290 293 293 293 293 293 293 292 291 291 290 290 290 291 291 292 292 292
297 297 296 297 297 296 297 297 296 297 295 295 295 297 297 297 297 295 296 297 298 296 295 295 295 297 297 298 298 299 299 298 297 297 297 296 296 297 296 299 302 303 303 303 303 301 298 296 299 301 302 303 302 297 301 292 293 297 299 298 298 298 297 296 296 295 295 295 294 294 294 294 293 293 293 293 293 293 292 292 292 292 292 293 293 293 293
298 297 297 297 296 296 296 296 296 296 295 295 296 295 296 295 296 298 298 296 296 296 295 295 293 297 298 298 297 296 297 298 298 297 296 297 299 298 298 300 303 304 298 296 296 297 300 300 298 296 301 301 299 293 293 294 296 297 298 297 297 296 297 296 295 296 296 296 296 296 295 295 295 294 294 294 294 294 294 294 293 293 293 293 293 294 294
297 297 297 297 297 295 296 295 296 297 296 296 295 295 296 295 295 295 296 295 296 295 295 296 295 293 294 295 295 296 297 298 297 298 297 297 299 300 301 303 304 304 294 297 299 301 302 303 303 301 297 297 299 292 291 296 297 297 297 297 297 296 296 296 296 296 297 297 297 297 297 296 295 295 294 294 294 294 294 294 294 294 294 294 294 294 294
297 297 297 297 297 296 295 295 294 294 294 297 296 294 294 294 294 295 295 295 295 294 295 295 295 296 295 295 295 295 297 298 298 297 296 298 300 300 300 301 301 298 291 295 298 299 301 302 303 301 294 292 292 290 293 297 298 298 298 297 297 297 297 297 296 296 296 296 297 297 297 295 295 296 295 294 294 294 294 294 295 295 295 295 295 295 295
297 297 297 297 296 295 295 294 295 296 296 294 294 293 293 293 294 294 295 294 295 295 294 294 295 295 295 295 296 297 298 299 299 297 297 298 298 300 296 292 294 293 293 290 294 297 300 301 299 292 291 291 290 290 296 297 299 299 299 299 299 298 298 297 297 296 296 297 296 297 296 296 296 295 295 295 292 294 294 293 294 294 294 294 294 294 294
296 296 295 292 295 296 296 296 296 295 294 295 295 294 293 294 295 294 294 294 294 295 296 296 296 296 297 297 297 297 296 296 297 297 300 302 301 302 299 294 295 292 290 287 292 296 298 292 289 288 288 289 290 292 296 297 296 298 299 299 299 298 298 298 297 296 296 296 296 297 297 296 296 295 296 296 295 295 294 292 292 293 294 294 294 295 295
296 294 294 295 295 295 294 293 293 293 293 294 294 295 295 293 293 294 294 294 295 295 296 296 296 297 297 297 298 296 297 298 299 296 297 298 298 296 294 291 289 288 289 294 296 296 295 293 289 288 288 288 289 295 296 297 298 298 299 299 299 299 298 298 298 297 296 295 295 295 293 294 295 296 294 293 295 294 294 293 294 293 293 293 294 292 292
296 295 295 294 295 294 293 292 293 293 293 295 295 295 295 294 293 294 294 294 294 294 294 295 295 296 297 297 297 298 299 298 295 300 297 297 297 295 293 293 293 288 286 287 289 288 286 286 286 287 287 288 291 295 296 297 298 299 299 299 299 299 298 298 298 297 296 295 294 295 295 295 295 295 295 295 295 295 295 295 294 293 293 293 293 293 292
294 295 294 293 293 293 293 293 293 291 294 295 293 294 295 293 292 292 293 293 293 293 293 294 294 295 296 295 295 297 296 297 300 302 298 293 295 295 296 291 287 286 288 291 293 292 287 286 285 286 287 288 294 296 297 297 297 298 298 298 298 299 298 298 298 297 297 296 297 296 296 296 296 296 295 294 294 295 294 294 294 294 293 292 290 289 289
293 293 294 293 293 293 294 293 292 294 295 293 293 295 292 292 293 295 293 293 292 292 292 293 294 295 295 295 295 295 296 296 297 299 299 298 297 296 293 291 291 288 288 291 291 290 287 286 287 287 288 292 294 294 295 296 297 296 297 295 295 296 296 295 292 293 295 294 296 295 296 296 295 294 293 294 294 294 293 293 291 289 287 288 288 287 287
294 294 295 294 295 294 294 295 296 295 294 294 294 293 291 291 294 293 294 292 291 291 293 294 294 294 294 294 295 295 295 295 295 294 297 296 293 291 289 290 289 287 289 289 289 289 289 290 291 291 292 292 293 293 292 293 294 293 293 295 295 295 295 294 294 295 295 295 295 295 295 295 294 294 294 293 292 291 290 289 288 288 288 287 287 286 286
293 294 295 293 293 293 294 294 294 294 294 294 293 292 292 293 293 292 292 289 290 292 294 293 296 297 293 293 294 295 293 294 293 294 293 293 292 293 289 287 289 288 289 289 289 290 288 288 287 288 289 292 293 292 290 290 292 292 293 292 291 293 293 293 293 294 294 294 295 294 293 294 294 292 291 290 290 289 289 288 288 287 286 286 286 285 285
Wind_Speed
3 3 4 1 1 2 2 3 3 7 1 3 3 4 5 5 3 9 3 4 2 7 6 7 8 7 6 7 9 6 6 6 5 4 4 4 4 4 5 7 7 7 8 8 7 5 4 4 6 6 5 4 3 3 4 5 4 5 2 2 2 3 4 3 3 4 5 5 5 5 5 2 2 2 2 3 3 4 3 3 3 3 3 4 5 5 5
5 4 2 1 2 2 2 4 5 3 3 8 7 5 3 7 6 5 3 2 8 9 8 9 10 5 4 6 5 5 6 6 4 3 4 6 6 6 8 8 8 7 7 5 4 4 4 6 6 6 5 5 5 5 5 5 5 4 2 3 3 4 4 4 4 4 5 4 5 5 4 1 1 2 2 3 2 2 3 3 3 3 3 4 5 5 6
4 3 3 3 2 0 4 5 3 2 2 1 3 1 1 1 5 7 5 5 10 8 6 8 5 4 4 5 5 6 7 5 4 4 5 6 7 7 8 7 7 6 5 4 4 5 6 7 8 7 7 6 5 5 5 5 5 3 3 4 4 3 4 3 4 5 5 5 4 4 3 1 1 1 2 3 3 2 3 3 3 4 4 5 4 4 5
4 3 5 4 2 0 1 7 9 4 4 3 2 2 4 5 7 1 1 2 6 8 3 4 5 4 4 5 7 6 5 4 4 5 7 7 8 8 9 8 5 5 6 7 8 8 7 7 7 6 6 6 5 6 5 5 5 3 3 4 4 4 4 3 3 5 5 5 5 4 3 3 3 2 1 3 4 2 3 3 2 2 3 3 3 4 4
3 3 1 4 4 3 3 2 4 3 3 1 1 3 2 5 3 1 1 7 6 4 1 5 7 5 6 5 5 5 6 5 4 6 7 8 7 8 8 8 7 7 7 7 7 6 6 7 7 7 7 6 6 7 5 6 2 4 5 5 4 3 4 3 3 4 5 6 6 4 3 3 3 3 2 2 3 1 3 3 1 2 3 4 4 4 5
3 4 6 2 4 4 1 4 3 4 3 3 4 4 5 7 7 5 5 7 5 5 5 4 7 7 8 4 6 3 5 8 7 6 7 8 7 6 5 5 6 6 5 5 6 8 8 7 8 7 7 7 7 5 4 2 4 5 5 4 3 4 4 3 2 3 5 5 6 5 4 4 3 4 2 3 3 3 3 2 2 1 2 3 4 4 5
2 4 5 4 2 4 4 1 2 2 0 3 4 6 6 5 7 7 9 10 9 9 5 6 8 8 10 6 8 9 5 6 7 7 5 6 6 7 6 4 4 5 6 5 5 5 6 7 5 4 4 4 3 3 3 4 4 4 4 3 3 4 4 3 2 3 5 5 5 5 5 4 4 4 4 4 4 4 3 3 3 2 2 2 3 4 4
1 1 2 2 3 4 7 6 2 3 2 1 0 5 5 5 9 9 6 12 9 7 8 7 6 7 7 7 6 8 6 4 5 4 5 5 4 4 5 5 5 6 7 9 9 8 5 5 5 6 6 4 4 4 3 4 4 4 3 3 4 3 5 4 3 3 4 5 5 4 4 4 4 4 3 3 4 3 3 3 2 2 2 3 3 3 3
1 1 1 7 5 8 4 1 1 4 1 2 1 2 4 3 4 8 5 6 5 5 4 5 5 4 2 4 7 3 3 4 4 6 5 4 5 5 4 4 5 5 4 5 6 5 6 6 6 6 4 5 4 3 2 4 3 3 3 4 4 4 4 4 3 4 4 3 4 3 3 3 4 4 4 5 4 2 3 3 2 2 3 3 3 2 4
3 1 3 4 3 2 6 7 3 2 1 2 2 2 6 5 4 5 4 4 5 4 5 4 4 2 6 7 6 6 6 3 4 4 5 4 4 3 3 1 2 3 3 3 4 5 7 6 6 5 5 5 4 4 4 3 3 3 3 6 4 4 5 5 4 4 4 4 5 3 3 4 4 4 4 3 3 2 3 3 3 3 3 3 3 3 4
2 2 2 2 2 7 6 3 2 0 2 4 3 4 6 5 2 5 6 5 5 4 3 4 4 5 5 5 6 8 5 6 2 4 3 2 3 3 3 5 7 6 5 5 5 4 5 6 5 4 5 6 5 4 4 4 4 4 6 6 4 5 6 5 3 3 3 3 4 4 4 4 3 4 4 4 4 3 2 1 2 4 4 4 4 4 4
2 4 1 4 4 3 1 5 3 1 4 4 3 3 4 2 4 5 5 6 5 5 4 1 1 0 4 6 7 4 4 4 4 3 3 2 2 3 3 3 2 4 5 5 4 5 7 8 5 5 5 5 4 4 4 3 5 6 7 7 6 5 5 4 3 3 2 2 2 3 5 5 4 5 4 2 3 3 3 1 3 4 3 4 5 4 4
2 4 3 3 6 5 5 4 5 2 2 2 1 4 6 2 4 6 6 6 7 4 3 2 2 5 6 5 6 5 5 4 4 3 2 2 1 3 3 3 3 5 6 8 10 11 9 7 5 5 4 5 4 4 4 5 6 7 7 5 3 5 5 4 4 4 2 1 4 5 4 5 5 4 3 3 2 3 2 2 3 4 5 4 4 4 4
5 5 4 7 5 8 5 1 4 4 3 1 5 7 3 3 4 5 7 7 6 5 6 4 6 5 5 5 5 6 5 5 4 3 3 1 1 2 3 4 5 4 5 5 4 4 4 5 5 5 5 5 5 4 4 6 7 7 5 4 4 4 5 5 2 3 4 3 2 3 3 3 4 4 3 2 2 1 1 3 5 5 5 5 4 4 4
3 1 0 3 2 1 4 7 2 1 1 6 5 1 2 5 3 5 6 7 7 5 5 7 7 7 7 6 5 5 5 4 6 5 4 5 6 5 4 4 5 6 6 7 8 8 6 4 4 5 6 5 5 4 4 7 6 5 5 3 4 4 4 4 2 2 3 3 2 2 2 1 1 1 3 4 4 3 4 5 5 6 5 4 4 4 4
2 3 3 4 9 3 6 6 5 5 9 3 5 3 1 2 5 4 5 5 7 6 6 6 6 6 6 8 6 5 5 6 6 5 4 4 4 4 6 6 7 7 8 7 8 6 5 5 5 5 7 6 5 4 7 7 3 3 3 3 2 3 3 4 3 2 1 1 1 1 1 2 2 2 4 4 4 4 3 5 6 5 4 4 4 4 4
4 6 8 8 4 4 5 5 6 6 6 3 6 4 3 3 5 4 2 6 6 7 7 6 5 5 5 7 6 4 7 6 5 6 6 6 8 8 9 9 8 8 11 11 9 7 7 6 5 6 6 7 6 6 7 3 4 4 4 3 4 4 4 4 3 1 1 2 1 3 4 3 2 4 3 3 3 3 4 5 5 5 4 4 4 4 4
3 4 7 3 3 3 6 7 8 4 2 3 3 4 3 6 5 6 6 5 5 4 4 3 4 5 6 5 7 6 6 6 8 6 6 6 5 5 4 5 8 10 8 5 6 8 8 7 7 7 6 7 7 8 3 5 5 5 4 4 4 5 4 3 3 1 1 1 3 4 4 4 3 2 2 3 3 3 4 5 5 5 5 4 4 4 4
1 4 1 2 4 2 3 6 5 4 5 6 5 3 5 7 4 5 6 5 2 1 4 5 5 6 5 5 8 7 7 8 8 8 7 8 6 6 9 10 6 6 7 8 9 9 10 8 8 7 7 7 9 7 5 5 5 5 5 5 5 4 5 4 2 1 2 1 2 3 4 3 3 3 2 4 3 2 3 6 5 5 4 4 4 4 3
4 7 2 4 4 4 5 5 4 5 7 7 6 7 5 4 3 3 4 3 3 3 4 7 6 8 7 5 8 7 7 7 7 7 7 8 6 7 7 4 7 6 8 11 11 11 11 9 8 8 8 9 9 7 4 4 5 6 5 5 6 6 6 4 4 3 3 3 3 2 3 3 4 4 4 3 4 2 3 5 7 5 4 4 5 4 3
6 5 8 8 5 5 6 4 6 7 5 3 3 5 5 4 5 5 4 5 6 5 8 5 5 5 8 7 7 7 7 8 7 8 8 6 7 7 5 6 8 11 11 12 12 12 12 9 9 9 10 9 9 8 6 5 6 7 7 6 6 5 4 4 4 3 4 4 4 4 4 3 2 1 3 4 4 1 2 2 2 4 6 4 4 3 3
5 8 6 2 2 4 3 5 7 7 6 4 5 1 3 4 6 6 5 6 6 8 6 4 4 6 7 8 5 6 7 8 9 8 7 6 6 7 6 4 8 9 10 12 12 13 11 8 9 10 10 10 9 8 6 6 7 8 7 6 5 6 4 4 4 4 4 4 4 4 4 4 3 2 1 1 2 2 1 2 3 1 1 3 4 4 3
8 7 9 5 3 3 7 7 5 4 0 1 3 5 6 6 5 5 4 6 4 4 6 5 6 6 7 9 5 5 6 8 8 7 6 7 6 7 3 4 6 9 11 10 10 11 10 7 9 10 10 10 9 8 8 7 8 8 7 7 6 6 5 5 6 5 5 4 4 4 4 4 4 4 2 2 0 1 1 3 3 2 3 3 5 3 2
5 4 5 7 5 3 3 4 5 6 4 4 5 6 5 6 6 4 5 6 5 6 6 3 5 6 5 6 4 6 8 8 7 7 5 4 6 6 4 5 7 8 9 9 11 15 11 10 11 10 10 10 10 9 8 8 8 8 8 8 7 7 7 6 5 4 4 5 5 5 4 4 5 5 4 2 1 1 1 2 2 4 4 5 4 4 3
4 3 5 7 7 5 5 5 5 5 4 5 5 7 8 7 6 5 5 5 5 5 5 7 5 3 5 6 4 5 5 6 6 6 7 6 5 5 5 5 7 9 10 10 11 10 8 9 10 10 10 10 9 8 9 9 9 8 8 8 8 7 7 6 6 5 5 5 5 5 5 5 5 5 5 5 5 2 1 2 3 3 3 3 4 4 4
5 3 3 3 1 4 4 3 5 6 7 7 5 4 5 6 5 3 5 6 4 4 5 4 6 4 3 5 4 4 4 7 7 5 5 5 5 4 5 7 9 7 8 7 8 8 8 10 11 9 10 11 10 10 9 9 9 10 9 9 9 8 7 7 7 6 6 6 6 6 5 6 5 6 5 5 5 5 5 1 0 1 2 3 4 4 4
4 2 2 2 4 6 3 6 5 5 4 5 9 8 5 2 2 2 2 2 3 3 4 4 4 4 3 4 5 4 5 7 5 5 4 4 5 6 6 5 5 6 7 7 7 9 9 8 9 10 13 13 10 9 9 10 10 9 9 8 7 8 11 8 7 7 6 6 6 6 5 6 5 6 6 5 5 5 6 6 5 6 4 2 2 5 4
3 4 5 4 5 4 6 6 6 6 5 4 6 6 3 1 0 0 1 1 2 1 2 3 3 3 4 3 1 6 4 3 5 6 6 6 6 5 5 5 5 5 6 7 8 6 7 8 10 11 13 9 8 9 10 10 10 10 10 9 8 7 6 7 7 6 6 6 6 6 7 7 6 6 4 5 5 5 3 5 5 5 3 4 3 2 3
6 6 6 7 8 9 3 2 3 4 6 2 2 1 2 2 1 0 2 3 2 2 4 4 1 2 3 5 2 5 5 5 5 6 6 7 6 6 4 4 5 5 5 6 6 5 6 7 7 9 12 6 7 9 10 11 11 10 10 9 8 7 7 7 7 6 6 6 6 7 6 5 5 5 5 5 5 4 4 4 5 4 3 1 1 1 1
8 6 4 7 9 6 5 6 7 6 5 3 2 2 2 4 3 4 3 4 2 2 4 3 4 5 3 5 5 4 4 5 6 6 7 7 7 6 5 4 4 4 3 4 6 4 5 6 8 9 11 8 8 9 10 11 11 11 11 11 9 9 8 8 7 6 6 6 7 7 5 6 5 6 6 6 6 6 5 5 5 4 4 3 2 4 6
3 2 5 5 5 4 7 10 7 6 4 3 4 4 2 2 3 3 4 3 2 3 5 3 4 5 6 5 5 4 4 4 5 6 7 7 7 6 4 2 2 7 7 7 5 5 7 9 10 12 10 7 9 9 10 11 10 10 8 8 8 11 12 12 9 8 7 7 6 6 6 5 6 6 6 6 5 5 5 4 4 4 4 3 4 5 5
1 2 1 2 4 5 5 5 5 6 6 4 3 5 6 5 5 5 4 3 5 4 4 4 5 6 6 4 4 4 4 4 5 6 6 6 6 6 4 3 5 7 8 8 4 6 7 8 9 11 10 9 11 11 11 11 9 9 9 9 9 8 9 11 7 8 7 7 6 7 7 7 6 6 5 6 6 7 6 6 5 6 5 5 6 7 5
4 3 4 4 2 2 5 5 6 7 5 6 9 7 5 5 4 4 4 4 4 4 3 6 6 6 5 4 4 4 4 4 5 5 5 6 7 6 4 3 4 6 7 7 6 5 8 10 12 11 7 7 9 10 11 11 10 10 10 9 9 9 7 9 10 8 6 6 7 7 7 7 7 7 8 8 7 7 6 7 6 6 6 6 7 7 5
10 10 9 8 10 9 9 10 7 7 5 5 4 4 4 4 4 4 4 4 3 4 6 7 6 4 3 3 4 4 3 5 6 7 7 7 7 7 6 5 4 5 7 7 5 6 7 9 9 8 7 7 8 9 10 10 10 10 10 9 9 8 8 8 8 7 7 8 8 8 7 7 7 7 7 7 7 7 7 7 7 7 7 7 7 7 6
10 10 9 8 8 8 9 9 8 8 7 6 5 5 5 4 3 5 4 3 5 7 7 4 4 3 3 3 3 4 3 4 5 6 7 7 7 6 6 7 7 6 7 6 6 7 8 9 8 8 7 8 9 9 9 11 10 10 10 10 10 9 9 8 8 9 9 9 8 7 7 7 7 7 7 8 8 8 8 8 7 7 7 7 7 6 7
9 9 7 6 7 8 7 7 6 7 8 8 7 6 5 6 5 4 5 6 6 5 4 4 4 3 3 4 4 4 5 5 5 5 6 7 6 5 6 6 6 7 7 10 8 7 7 7 9 10 7 6 5 7 9 9 9 10 10 10 9 9 9 9 9 9 9 8 8 8 8 9 9 8 8 7 7 7 7 7 7 7 7 7 7 6 6
9 11 10 9 7 6 7 7 7 6 7 7 6 5 5 4 6 7 5 4 5 6 5 3 2 3 5 5 4 4 5 6 6 6 6 6 5 5 5 6 5 5 5 7 8 5 4 6 7 10 7 7 9 11 11 14 9 8 8 9 9 9 9 8 8 8 9 8 8 8 8 7 6 7 7 7 7 7 7 7 8 7 7 7 6 6 5
9 10 10 9 8 7 9 9 6 6 5 3 3 4 6 5 5 5 5 5 6 6 4 3 4 5 4 3 3 5 7 6 5 6 6 6 4 4 6 5 7 6 7 7 6 6 6 5 6 7 7 8 9 9 9 14 14 11 8 9 9 9 10 9 9 9 9 9 9 8 8 8 8 7 7 7 7 7 7 8 7 7 7 7 7 6 6
5 6 6 6 5 6 5 4 4 4 6 6 6 6 6 6 4 2 4 6 7 4 3 4 3 3 4 4 6 6 6 7 6 5 5 6 3 3 7 7 7 8 8 8 8 8 8 5 5 7 8 9 10 8 11 15 14 10 9 9 9 9 10 10 10 10 10 10 8 8 8 8 8 8 8 8 8 8 8 9 8 8 7 7 7 7 7
6 7 8 7 7 6 5 5 5 5 5 5 5 6 5 4 4 4 5 5 7 4 4 3 3 5 5 5 5 7 8 7 5 4 5 4 3 4 6 8 8 7 7 8 7 7 9 9 6 7 8 8 6 4 4 9 12 9 8 8 8 9 9 10 10 9 9 9 10 10 9 9 9 9 9 8 8 8 8 8 8 8 8 7 7 7 7
8 6 5 7 7 6 6 5 5 5 4 4 4 6 5 4 3 2 5 6 7 3 3 4 4 6 6 7 7 8 7 7 5 6 3 1 3 6 6 8 8 6 6 6 6 7 9 7 6 7 7 7 6 7 6 7 7 6 7 7 8 9 9 9 9 10 9 10 10 10 10 10 9 9 8 8 8 8 8 8 8 8 8 8 8 7 6
7 5 6 6 5 5 5 4 3 2 3 5 6 5 5 4 4 6 6 4 4 4 4 4 6 7 6 5 5 5 7 8 6 5 4 6 6 6 6 8 6 6 7 8 7 7 7 7 6 6 7 5 6 10 10 9 9 8 7 5 5 6 7 8 9 9 9 9 10 10 10 9 9 9 9 8 8 8 8 8 7 7 7 7 7 7 7
5 7 7 7 6 5 5 5 5 7 6 5 4 5 5 3 4 4 4 4 5 4 4 5 5 5 6 5 5 5 7 7 6 6 5 6 7 7 7 8 7 8 9 6 6 7 7 6 6 6 6 6 7 11 10 7 7 8 9 9 9 8 7 7 7 7 7 8 9 9 9 9 9 9 9 9 9 9 8 8 8 8 8 8 8 8 8
7 6 6 6 6 6 5 5 4 2 2 6 4 3 4 4 4 4 5 4 4 4 4 5 5 5 5 4 4 6 7 7 7 5 4 6 7 5 7 8 7 7 7 5 6 6 7 6 6 7 8 8 8 8 7 6 7 8 8 9 8 8 7 6 6 6 7 7 8 8 9 10 10 9 9 9 8 8 8 8 8 8 8 8 7 7 7
7 6 7 7 6 5 5 4 5 6 6 2 1 1 3 3 4 4 4 4 5 6 4 5 5 6 6 5 6 7 7 7 7 4 3 6 6 7 2 3 4 3 5 5 6 6 7 7 8 9 7 6 6 8 6 6 7 7 7 8 8 8 8 9 9 8 9 9 9 9 8 8 8 9 9 10 10 9 8 8 8 8 7 7 7 7 7
6 5 4 5 5 5 6 6 4 1 1 1 2 4 4 5 5 4 4 5 5 6 6 6 5 7 7 7 7 7 6 7 7 6 8 8 8 7 2 2 4 4 6 6 5 6 7 9 9 7 7 6 6 6 5 6 6 7 8 8 8 9 9 8 9 9 9 9 9 9 9 9 8 8 8 8 9 10 10 9 7 6 6 6 6 6 5
5 4 5 5 5 4 2 2 3 3 2 1 2 5 6 4 5 4 4 5 6 6 6 5 6 7 6 6 7 6 7 7 7 6 8 7 7 7 8 7 5 6 5 5 5 6 6 7 7 7 7 6 5 5 6 6 7 7 8 8 7 7 7 8 9 9 9 8 8 8 8 8 8 8 9 8 8 8 8 8 8 7 5 5 5 5 5
6 5 5 4 5 3 3 3 4 4 4 7 7 7 6 3 3 4 4 4 4 5 5 6 6 7 6 6 6 7 7 6 4 8 5 6 6 5 4 4 5 4 5 5 7 6 7 7 7 7 7 6 5 5 6 7 7 7 7 7 7 8 8 7 7 8 8 8 8 7 7 8 8 8 8 9 8 8 7 7 7 6 5 5 5 6 7
4 4 3 3 2 3 4 4 4 4 6 6 5 6 5 3 3 4 5 4 4 4 5 5 5 6 6 6 5 6 5 5 7 8 4 3 4 4 4 3 4 4 3 4 6 6 5 7 7 8 8 6 5 5 5 5 5 6 6 7 7 7 6 6 7 5 6 8 8 9 8 8 8 8 7 7 7 7 7 7 7 7 8 7 7 7 8
3 2 2 3 3 4 5 6 6 7 7 4 6 6 3 2 2 6 6 6 5 4 5 6 6 6 6 6 5 5 5 5 6 7 8 7 5 4 4 3 4 3 3 4 5 5 4 5 5 5 4 4 3 2 2 4 4 5 5 4 4 5 5 4 5 5 4 4 4 3 5 6 6 7 7 7 7 7 6 6 7 9 13 10 8 8 9
4 5 6 6 6 5 3 5 6 5 5 6 6 4 4 5 7 7 7 5 2 3 6 6 6 6 6 5 5 5 5 4 4 4 5 6 5 4 4 3 4 3 3 3 3 3 3 2 1 1 1 2 1 1 1 2 2 3 4 4 4 5 5 6 6 6 6 6 6 6 7 6 6 6 6 6 7 7 7 8 8 8 8 9 9 9 9
4 4 5 4 5 5 4 5 4 4 5 6 5 5 6 7 6 6 6 5 6 6 6 4 6 6 2 3 5 6 5 5 4 4 3 3 4 4 3 2 3 3 3 2 2 2 2 2 1 2 2 2 2 2 2 3 2 2 2 2 3 2 2 2 3 4 4 4 4 4 4 5 6 7 7 6 6 7 8 7 7 7 8 8 9 10 10
Wind_Direction
247 213 229 230 6 207 220 220 258 285 187 167 171 235 208 142 221 228 251 166 231 268 260 271 278 269 265 277 283 274 269 280 283 287 286 271 255 246 229 228 222 222 222 218 216 203 192 180 192 199 198 205 214 237 246 253 263 254 238 213 240 268 280 296 296 296 300 302 300 299 288 290 26 24 355 18 360 352 338 321 336 340 348 4 2 7 4
314 310 321 282 196 293 318 264 253 249 189 222 211 248 201 187 230 241 266 226 252 258 270 276 271 281 254 271 284 298 294 269 272 273 263 257 256 239 235 232 224 223 227 227 214 193 190 190 193 194 197 205 209 216 233 241 251 249 166 213 224 256 275 282 291 300 300 302 310 307 298 13 25 350 11 339 331 316 307 306 327 338 5 17 19 10 4
303 316 4 70 47 141 286 287 278 289 254 262 225 267 278 290 299 282 268 273 285 270 223 250 285 321 297 292 290 276 275 292 288 266 259 257 250 247 247 244 233 225 223 214 199 199 200 195 194 190 197 201 207 220 233 242 248 233 181 207 223 242 268 273 292 298 305 304 317 311 312 331 325 355 356 326 304 303 297 325 344 9 5 12 7 3 8
307 333 14 323 18 358 227 292 308 312 138 285 218 182 214 153 234 302 20 317 270 271 310 280 274 309 328 308 301 303 294 269 247 243 259 256 253 246 244 243 235 222 214 208 203 203 199 198 191 188 194 201 200 220 226 237 235 190 195 214 222 244 256 280 302 309 309 310 313 313 335 346 315 286 223 278 268 241 284 305 360 25 16 354 345 356 358
264 265 353 315 342 9 11 307 238 205 223 214 276 259 229 218 150 126 207 238 222 238 13 352 311 320 304 300 273 280 300 278 239 251 254 259 258 249 243 242 234 226 219 214 206 197 194 194 191 197 187 182 204 217 214 236 195 181 205 213 224 253 266 280 300 314 320 319 308 309 335 321 326 304 279 241 258 256 269 264 315 29 346 353 347 349 1
250 296 330 356 45 31 249 227 186 154 282 196 213 264 221 216 166 206 197 239 277 292 287 263 272 294 279 266 278 238 246 283 286 257 249 257 265 269 258 240 234 229 212 203 202 198 193 192 194 188 181 188 205 198 205 196 181 202 199 222 213 251 274 279 297 306 313 313 311 315 323 328 322 324 291 350 318 299 279 270 284 349 341 350 357 357 3
276 320 7 35 13 243 241 289 250 202 347 154 208 251 255 237 233 277 291 277 271 260 255 253 257 257 270 274 272 285 248 231 248 269 279 270 258 256 264 257 235 213 200 194 188 188 192 191 188 159 187 201 160 181 183 184 200 192 209 209 234 247 267 280 309 303 304 306 300 310 318 324 356 328 348 331 336 335 330 311 281 249 273 15 6 15 10
58 40 45 32 247 252 285 295 305 204 131 167 302 306 292 240 212 207 236 257 270 292 293 287 260 257 279 294 258 251 267 213 231 233 254 258 238 243 232 214 209 191 192 189 185 189 184 170 174 178 185 177 170 196 172 191 195 202 188 203 236 260 270 273 271 267 272 291 313 326 327 332 342 333 322 350 328 321 331 315 257 151 85 63 45 38 20
215 211 156 235 300 330 333 17 232 168 183 175 153 234 275 231 196 172 212 268 289 300 287 281 301 309 345 10 331 284 256 278 225 209 227 229 231 228 246 205 207 204 186 176 182 164 165 172 164 186 169 157 166 146 164 214 194 190 186 222 235 243 258 273 265 259 251 257 282 287 306 311 320 318 330 328 317 306 330 307 300 79 85 74 77 53 11
118 150 332 342 11 313 275 242 273 277 181 148 169 98 295 291 237 199 193 248 278 292 298 309 319 14 39 347 304 305 315 285 269 248 251 246 236 229 207 168 163 170 169 163 174 166 163 177 184 163 151 146 144 165 205 200 179 187 204 234 235 237 254 262 261 257 250 240 254 280 316 310 302 302 292 275 271 306 287 300 39 117 117 104 85 55 21
75 68 151 215 187 249 212 249 250 248 172 144 128 53 314 270 210 199 183 235 250 236 262 304 7 42 4 283 260 278 304 303 254 244 240 225 225 206 194 184 169 180 178 167 163 151 156 173 204 161 154 147 141 171 195 185 178 191 217 237 228 234 244 248 252 258 278 267 274 292 278 269 263 282 290 297 309 324 339 17 148 127 118 111 84 47 25
191 131 133 253 205 234 278 233 265 251 160 98 64 10 281 260 237 200 173 213 233 243 235 213 32 105 305 260 264 247 274 273 265 225 252 252 237 222 217 238 232 176 148 135 133 164 178 198 180 157 156 152 159 174 190 158 174 205 221 228 224 232 251 251 239 252 245 273 282 273 288 295 291 278 286 298 321 350 0 154 145 118 108 95 80 39 12
174 163 258 324 295 270 255 245 210 211 190 79 86 215 239 248 215 200 184 215 227 219 229 179 286 233 209 218 247 289 306 313 281 242 228 221 215 239 242 254 158 160 180 175 177 187 194 192 166 158 152 159 185 190 168 166 204 217 224 228 225 235 248 260 262 267 267 255 292 298 277 278 276 284 312 324 10 31 354 87 108 102 96 94 80 40 13
193 194 183 236 255 240 189 253 170 179 99 252 206 234 208 156 221 219 194 217 234 199 220 207 208 239 247 262 283 285 278 238 258 262 254 251 231 232 188 178 178 187 186 203 210 225 220 191 169 157 157 173 203 180 162 200 221 222 223 216 213 229 233 244 277 319 319 309 274 281 295 291 295 307 337 333 37 43 359 117 115 112 107 90 80 46 11
72 61 60 357 323 281 132 127 68 72 137 230 208 207 251 201 222 186 217 212 243 177 242 235 236 262 287 284 283 282 285 268 252 249 234 215 216 212 198 191 202 185 190 203 205 206 205 195 172 166 162 183 203 196 190 228 225 208 217 195 202 224 231 248 267 301 310 302 312 339 357 8 118 350 334 12 14 42 90 110 115 117 103 94 77 49 22
164 144 151 203 210 214 208 147 186 222 210 190 175 145 328 226 197 202 221 240 225 206 213 244 254 248 262 299 281 288 280 265 270 269 257 249 227 220 220 213 199 192 203 206 207 210 206 195 183 173 171 192 195 193 224 236 223 203 182 180 168 209 235 251 276 299 342 345 357 346 28 18 40 17 8 11 30 28 86 119 121 110 98 98 84 65 44
150 196 213 242 233 204 228 204 213 211 223 163 177 169 205 231 252 192 168 239 236 204 211 233 241 284 257 246 272 283 278 289 280 274 257 228 224 218 211 212 200 198 203 204 205 209 209 200 196 188 192 189 195 207 236 199 191 187 183 163 174 212 237 250 267 291 47 19 17 42 30 28 26 5 12 23 50 27 95 108 109 109 118 106 98 90 67
269 261 217 231 289 256 257 242 233 235 271 239 161 181 247 249 223 180 198 226 238 213 194 203 259 222 259 288 290 278 270 273 277 268 275 266 248 242 228 219 205 207 209 213 204 212 216 206 200 198 198 191 195 220 201 192 193 177 159 168 189 221 237 237 240 167 123 46 47 39 35 32 55 71 63 50 75 65 114 112 115 127 128 108 100 90 80
69 270 331 187 235 256 248 246 279 262 230 231 194 216 222 255 229 222 245 249 296 155 174 201 238 261 251 248 264 268 277 276 269 269 263 263 241 218 215 220 195 194 196 207 213 212 218 211 202 202 199 207 216 218 199 196 180 166 165 184 200 215 234 240 242 133 172 128 54 29 31 32 39 40 35 57 63 99 155 119 122 126 120 115 103 95 85
172 231 242 246 247 249 260 239 259 257 244 234 216 218 223 226 231 213 228 198 241 189 217 218 214 246 258 242 259 271 271 270 277 276 264 264 272 246 234 213 185 195 200 211 215 210 216 210 200 201 202 210 218 221 214 187 174 164 178 190 200 214 221 214 215 181 169 154 125 64 26 39 53 44 37 63 80 73 124 142 139 138 133 128 134 139 141
268 305 284 277 295 300 278 259 240 238 235 238 252 229 237 245 259 257 244 213 223 187 228 213 205 239 266 248 251 260 272 279 276 267 264 256 250 258 236 209 187 198 205 212 218 213 216 200 196 199 208 212 213 213 206 179 172 172 191 200 204 220 206 170 213 191 174 161 165 151 125 76 66 160 115 93 119 115 244 232 222 160 152 152 168 169 150
281 231 246 149 263 282 290 266 245 243 236 212 249 299 277 238 242 250 248 258 231 227 237 218 187 221 257 270 251 255 259 263 269 280 280 274 267 263 247 203 204 214 213 212 215 218 220 195 196 200 207 211 211 208 190 178 175 183 190 190 198 221 201 191 202 166 155 157 162 155 148 138 102 56 16 185 209 150 194 255 211 257 117 165 178 153 147
242 243 235 206 173 208 232 240 266 266 325 182 234 253 251 262 245 234 223 265 298 257 249 210 205 228 240 262 264 261 268 265 264 263 275 286 284 275 251 216 224 216 221 217 218 225 220 190 202 205 206 207 207 202 188 181 183 193 178 181 197 211 197 209 204 188 166 160 170 152 163 146 130 117 70 14 80 221 120 159 173 160 126 125 125 136 115
254 216 215 173 155 192 262 252 241 263 224 197 229 250 245 244 252 224 206 214 228 269 289 260 201 230 249 257 252 260 275 276 277 284 276 253 251 270 256 222 230 224 227 218 215 222 211 197 206 202 207 208 204 197 187 186 187 189 183 181 192 204 201 207 201 188 174 164 160 160 167 156 143 136 125 112 25 355 180 186 151 149 151 154 150 131 141
224 217 179 182 193 232 244 268 276 249 229 192 208 233 236 239 246 210 216 243 227 227 250 282 286 200 231 262 238 243 256 275 280 277 285 286 275 260 260 247 243 233 230 221 225 226 209 201 204 206 209 213 202 193 187 184 180 186 189 187 193 198 200 201 194 181 166 169 175 172 174 168 165 150 147 153 161 205 321 326 225 222 209 176 151 166 159
199 191 169 155 152 246 279 330 293 261 236 204 225 257 248 222 228 183 218 222 238 212 228 239 275 277 201 252 268 255 263 264 276 293 300 296 297 287 266 248 249 244 239 229 226 225 215 205 201 201 210 216 200 195 184 181 183 189 188 192 194 189 194 198 184 184 186 185 180 194 190 183 176 171 177 174 183 167 172 193 68 323 294 237 209 174 184
251 176 137 330 312 293 242 202 241 245 252 200 203 219 223 214 238 230 248 228 232 208 214 236 236 282 295 248 260 259 247 286 312 298 284 282 278 269 270 275 263 250 241 235 230 220 209 197 195 204 216 220 199 185 181 181 184 190 190 191 193 200 198 186 183 190 191 186 192 182 176 185 182 179 183 184 164 165 166 176 185 181 191 214 216 186 173
231 209 174 199 238 242 258 234 239 270 271 218 211 219 252 74 71 57 286 303 306 318 296 246 251 297 306 290 258 298 287 274 286 297 307 291 281 282 283 279 272 260 246 236 235 220 198 196 204 219 232 222 185 181 180 180 184 189 190 189 192 196 198 194 190 190 184 193 183 179 185 194 194 184 166 159 171 186 174 160 169 192 233 231 214 258 199
236 222 218 216 228 240 263 329 292 258 263 250 175 117 113 138 215 288 259 249 246 317 315 306 263 244 247 284 275 270 281 294 301 300 292 291 294 289 287 283 276 266 251 246 239 212 196 198 207 222 241 222 186 188 181 181 186 189 188 189 190 196 196 194 194 189 190 184 185 192 193 181 168 168 168 161 156 153 163 173 186 204 202 253 326 173 131
250 239 210 235 246 254 277 278 262 251 240 233 164 187 160 173 217 250 247 269 259 274 261 272 317 298 252 270 266 242 270 285 285 285 288 289 291 295 296 292 295 280 273 262 244 203 169 174 188 215 236 205 194 192 186 185 192 190 189 187 189 194 198 194 187 186 174 184 194 188 185 173 178 179 184 183 184 178 177 195 196 191 206 225 189 185 196
244 212 211 244 249 233 209 234 239 241 238 204 181 188 194 166 203 243 258 257 277 253 271 265 268 281 283 255 262 263 255 269 276 280 282 286 288 289 291 280 280 289 278 263 238 176 180 189 202 214 227 191 186 185 187 191 191 189 187 187 194 201 197 186 184 183 185 182 175 173 183 176 177 175 190 195 197 196 201 194 199 209 217 200 206 209 222
188 281 242 208 198 199 228 240 239 245 234 195 166 213 208 191 220 240 252 271 253 240 280 300 282 267 266 278 285 291 291 286 288 290 289 288 290 287 278 250 249 259 268 272 249 179 192 198 218 230 228 197 183 182 185 192 186 183 190 190 191 196 201 191 188 189 180 185 176 178 181 176 183 188 183 190 200 204 204 194 209 216 206 211 224 230 207
208 255 279 261 250 239 243 243 209 239 221 200 214 212 205 209 206 212 228 234 274 286 261 262 264 263 263 276 290 298 301 299 291 286 295 301 302 303 304 267 252 261 267 266 254 209 192 204 219 228 217 186 186 185 187 189 187 189 192 187 193 195 188 189 193 181 180 172 181 192 184 187 183 180 195 198 200 201 199 202 208 212 213 218 225 237 201
192 205 207 198 185 199 213 233 220 227 237 231 221 213 227 223 209 223 242 242 241 265 261 253 251 255 266 278 289 293 310 335 329 320 309 305 302 304 309 302 281 269 268 271 266 238 223 223 225 224 212 189 188 189 191 191 193 193 189 186 189 188 187 192 185 181 179 189 195 194 189 185 181 190 196 199 195 191 196 201 206 207 213 224 234 237 231
210 220 217 215 210 212 209 206 203 210 213 220 231 231 229 228 218 230 233 224 232 233 239 242 252 258 259 275 283 288 288 269 269 275 285 288 292 296 310 315 313 310 300 285 252 248 234 231 225 218 204 192 187 188 192 194 195 192 189 187 188 189 192 182 180 187 191 197 186 182 189 192 201 200 197 191 192 193 195 201 202 201 207 219 236 233 238
212 228 238 236 229 223 221 219 210 200 196 206 210 210 215 224 222 229 231 227 229 241 251 253 246 247 266 264 274 277 279 274 270 268 277 278 284 301 313 312 310 315 309 308 287 249 243 237 224 206 191 184 186 201 193 197 199 199 191 185 186 189 188 185 191 194 198 187 186 194 195 198 194 191 191 195 198 195 195 198 203 204 208 217 225 222 229
209 216 224 226 226 212 215 217 209 193 195 202 204 207 228 235 221 231 232 250 254 244 243 231 234 247 259 253 243 259 260 259 260 259 263 274 290 305 300 303 302 295 297 302 285 286 246 234 224 190 172 165 187 209 200 188 193 204 195 191 186 186 186 188 191 193 198 196 194 195 197 192 197 199 191 191 195 200 199 202 205 204 211 217 219 217 218
216 213 221 223 220 209 214 215 198 183 171 168 205 204 210 219 230 230 235 244 253 254 237 215 229 244 260 290 288 269 271 265 251 253 260 273 279 300 298 301 298 303 297 272 266 295 285 250 195 174 182 188 212 213 198 198 200 192 191 196 192 188 188 190 191 195 195 195 194 190 188 193 196 199 196 194 198 198 202 207 205 203 209 213 215 213 213
224 217 224 225 211 209 212 187 169 176 170 182 207 221 225 222 245 246 259 256 256 252 246 252 236 251 263 267 277 281 273 265 255 247 254 266 268 253 270 272 271 265 260 281 299 288 278 261 193 196 205 220 213 207 199 203 196 195 197 197 195 195 191 191 193 195 197 193 185 191 193 196 197 200 197 198 198 200 205 208 208 208 209 209 206 213 213
215 200 202 186 191 198 186 184 181 187 198 197 192 218 229 204 226 222 244 264 268 231 220 225 221 251 264 259 256 263 267 265 258 244 250 255 288 290 295 291 274 264 266 273 276 276 275 260 224 218 219 228 223 199 175 188 190 203 204 199 196 198 199 196 194 193 197 190 195 193 194 195 198 200 200 197 195 200 203 204 207 210 211 211 210 213 209
206 190 179 177 186 175 183 174 195 211 198 205 212 233 235 227 225 223 250 244 262 239 215 208 219 246 248 250 250 257 269 275 261 250 235 232 283 275 278 286 287 293 288 290 281 282 279 268 234 233 238 222 208 200 200 168 174 204 210 207 202 199 200 198 196 195 193 194 195 193 197 197 198 200 201 199 201 200 200 202 203 204 203 206 210 208 211
206 178 172 178 176 181 186 194 185 200 240 221 224 227 235 211 193 222 241 249 268 275 265 248 218 235 259 262 266 275 277 270 265 254 213 208 235 252 275 277 274 284 294 308 302 296 284 278 251 239 244 217 192 195 183 159 180 187 191 203 224 220 212 204 202 203 198 197 197 199 199 197 197 200 200 201 203 206 206 205 206 206 209 208 208 207 206
179 175 181 185 186 184 183 178 187 209 226 246 229 227 229 207 209 239 254 257 253 268 271 273 266 251 249 258 264 272 273 275 268 260 260 248 230 216 225 257 287 292 300 308 304 300 291 276 271 257 235 206 200 205 182 168 178 175 180 188 207 207 209 207 212 214 206 201 202 203 202 199 200 201 199 200 206 207 207 208 209 212 210 208 209 207 208
186 183 179 179 189 192 179 188 193 178 223 261 242 215 217 219 212 215 234 249 264 252 249 267 271 270 265 252 244 263 273 268 266 244 232 286 305 263 214 233 258 275 305 306 303 296 291 281 275 264 259 229 224 186 173 183 182 186 187 191 198 195 191 202 211 209 208 211 213 212 209 203 201 202 198 198 202 207 210 213 218 219 217 214 212 211 212
186 184 184 189 184 167 180 177 178 204 215 228 229 209 216 227 239 223 222 235 244 260 258 252 258 261 267 259 242 242 248 249 246 225 228 268 285 288 247 201 248 275 289 303 295 289 289 287 290 288 282 266 223 186 181 183 185 192 194 192 192 190 188 199 208 207 209 210 212 211 210 209 212 206 199 197 194 198 204 209 215 217 216 217 210 209 209
186 190 177 162 168 188 201 197 208 162 147 198 304 291 249 229 236 232 212 214 231 241 238 236 238 248 247 254 259 262 263 265 253 224 220 215 224 250 241 265 284 289 293 295 282 288 287 297 305 311 296 279 205 189 197 191 187 193 199 202 201 202 205 206 201 202 206 210 211 208 206 202 198 205 206 207 200 193 196 196 201 196 197 203 209 207 201
174 163 178 182 199 209 171 150 138 133 129 140 243 265 266 230 220 230 222 219 223 243 253 250 249 255 251 241 243 261 279 290 288 237 222 240 245 253 264 276 278 280 284 283 287 290 297 304 314 308 298 277 213 183 188 189 196 199 204 209 206 205 207 205 202 201 205 211 207 204 203 196 197 196 195 197 197 197 185 176 185 188 186 186 179 158 144
166 178 185 183 201 183 138 134 140 170 191 209 218 228 244 240 225 241 247 241 247 253 262 262 257 261 261 251 239 226 223 217 259 284 224 210 227 225 240 237 255 281 291 291 293 289 295 295 294 286 270 232 194 187 187 199 202 204 205 208 207 209 210 213 210 203 199 199 200 197 193 193 193 190 186 187 191 186 178 169 163 154 155 151 144 134 123
184 183 175 167 166 145 163 173 188 206 226 228 214 234 240 226 248 269 267 258 251 261 265 271 273 276 272 263 255 256 238 213 199 237 257 170 201 214 243 253 269 266 276 284 295 306 303 303 296 282 258 226 212 194 191 204 211 211 213 214 215 217 213 212 221 217 197 189 190 200 198 193 190 186 183 183 177 168 159 158 154 152 146 133 125 121 115
172 144 149 172 182 193 199 196 210 222 232 205 212 235 205 157 265 272 251 248 243 260 279 280 278 277 280 294 291 270 259 237 244 259 273 267 259 255 244 210 246 255 263 280 300 305 306 306 306 300 294 298 302 276 225 208 219 229 233 227 224 228 223 201 180 181 186 188 201 191 181 188 183 177 168 163 159 154 148 137 130 124 123 121 122 118 111
176 186 213 216 213 218 208 202 217 215 214 218 229 219 174 185 222 245 255 258 253 274 279 284 284 276 287 288 293 298 288 277 273 273 277 282 279 264 252 238 247 253 273 284 297 295 297 305 291 285 323 4 35 28 341 305 272 250 240 232 214 199 195 193 188 188 186 186 186 182 179 177 167 154 151 144 137 130 124 124 126 127 125 121 118 114 107
191 203 217 213 217 226 225 230 236 231 231 232 229 216 208 219 225 255 273 246 215 231 235 251 286 286 257 278 302 304 315 313 300 299 279 273 276 266 271 272 277 277 259 289 295 305 305 295 316 352 10 26 33 57 78 86 79 71 47 42 42 42 44 66 98 105 105 100 103 103 97 96 102 99 89 84 90 103 105 104 105 107 109 109 109 104 103